• Em Portugal
  • Lista de países
  • Para 7 dias
  • Temperatura da água
  • Mapas de satélite
  • Mapa do tempo
  • Widgets de tempo
  • user-avatar
    Iniciar Sessão

    Previsão horária em Saida

    Hoje, 24 Junho, Domingo

    Tempo Temperatura Precipitação Vento Pressão Humidade
    00:00 +26°C° 0 mm 2 m/s 758 mmHg 73%
    01:00 +25°C° 0 mm 2 m/s 758 mmHg 75%
    02:00 +25°C° 0 mm 3 m/s 757 mmHg 80%
    03:00 +25°C° 0 mm 2 m/s 757 mmHg 80%
    04:00 +25°C° 0 mm 2 m/s 757 mmHg 81%
    05:00 +25°C° 0 mm 2 m/s 757 mmHg 82%
    06:00 +26°C° 0 mm 2 m/s 757 mmHg 73%
    07:00 +28°C° 0 mm 2 m/s 758 mmHg 64%
    08:00 +30°C° 0 mm 2 m/s 757 mmHg 52%
    09:00 +31°C° 0 mm 2 m/s 757 mmHg 48%
    10:00 +33°C° 0 mm 3 m/s 757 mmHg 45%
    11:00 +34°C° 0 mm 3 m/s 758 mmHg 42%
    12:00 +34°C° 0 mm 3 m/s 757 mmHg 43%
    13:00 +34°C° 0 mm 3 m/s 757 mmHg 43%
    14:00 +34°C° 0 mm 3 m/s 757 mmHg 47%
    15:00 +33°C° 0 mm 3 m/s 757 mmHg 48%
    16:00 +33°C° 0 mm 3 m/s 757 mmHg 49%
    17:00 +33°C° 0 mm 3 m/s 757 mmHg 50%
    18:00 +30°C° 0 mm 3 m/s 757 mmHg 56%
    19:00 +29°C° 0 mm 2 m/s 757 mmHg 62%
    20:00 +28°C° 0 mm 2 m/s 757 mmHg 68%
    21:00 +28°C° 0 mm 2 m/s 757 mmHg 71%
    22:00 +27°C° 0 mm 2 m/s 758 mmHg 74%
    23:00 +26°C° 0 mm 2 m/s 758 mmHg 76%

    Amanhã, 25 Junho, Segunda-feira

    Tempo Temperatura Precipitação Vento Pressão Humidade
    00:00 +26°C° 0 mm 2 m/s 757 mmHg 77%
    01:00 +26°C° 0 mm 2 m/s 757 mmHg 77%
    02:00 +25°C° 0 mm 1 m/s 757 mmHg 78%
    03:00 +25°C° 0 mm 1 m/s 757 mmHg 77%
    04:00 +25°C° 0 mm 1 m/s 757 mmHg 76%
    05:00 +25°C° 0 mm 1 m/s 758 mmHg 75%
    06:00 +27°C° 0 mm 2 m/s 758 mmHg 66%
    07:00 +28°C° 0 mm 2 m/s 758 mmHg 57%
    08:00 +30°C° 0 mm 2 m/s 758 mmHg 48%
    09:00 +31°C° 0 mm 3 m/s 758 mmHg 45%
    10:00 +33°C° 0 mm 3 m/s 757 mmHg 41%
    11:00 +35°C° 0 mm 3 m/s 757 mmHg 38%
    12:00 +35°C° 0 mm 3 m/s 757 mmHg 39%
    13:00 +35°C° 0 mm 3 m/s 757 mmHg 40%
    14:00 +36°C° 0 mm 3 m/s 757 mmHg 41%
    15:00 +35°C° 0 mm 3 m/s 757 mmHg 44%
    16:00 +34°C° 0 mm 3 m/s 756 mmHg 48%
    17:00 +34°C° 0 mm 3 m/s 756 mmHg 52%
    18:00 +31°C° 0 mm 3 m/s 756 mmHg 60%
    19:00 +30°C° 0 mm 2 m/s 757 mmHg 68%
    20:00 +29°C° 0 mm 2 m/s 757 mmHg 76%
    21:00 +28°C° 0 mm 2 m/s 757 mmHg 78%
    22:00 +28°C° 0 mm 2 m/s 757 mmHg 80%
    23:00 +27°C° 0 mm 1 m/s 757 mmHg 81%

    Depois de amanhã, 26 Junho, Terça-feira

    Tempo Temperatura Precipitação Vento Pressão Humidade
    00:00 +27°C° 0 mm 1 m/s 757 mmHg 79%
    01:00 +26°C° 0 mm 1 m/s 757 mmHg 76%
    02:00 +26°C° 0 mm 1 m/s 757 mmHg 74%
    03:00 +26°C° 0 mm 1 m/s 757 mmHg 73%
    04:00 +25°C° 0 mm 1 m/s 757 mmHg 72%
    05:00 +25°C° 0 mm 1 m/s 757 mmHg 72%
    06:00 +27°C° 0 mm 1 m/s 757 mmHg 61%
    07:00 +29°C° 0 mm 2 m/s 757 mmHg 50%
    08:00 +31°C° 0 mm 2 m/s 756 mmHg 40%
    09:00 +34°C° 0 mm 2 m/s 756 mmHg 37%
    10:00 +35°C° 0 mm 3 m/s 756 mmHg 34%
    11:00 +36°C° 0 mm 3 m/s 756 mmHg 32%
    12:00 +37°C° 0 mm 3 m/s 756 mmHg 33%
    13:00 +37°C° 0 mm 3 m/s 756 mmHg 35%
    14:00 +37°C° 0 mm 3 m/s 755 mmHg 36%
    15:00 +37°C° 0 mm 3 m/s 755 mmHg 40%
    16:00 +36°C° 0 mm 3 m/s 755 mmHg 44%
    17:00 +35°C° 0 mm 3 m/s 754 mmHg 48%
    18:00 +34°C° 0 mm 3 m/s 755 mmHg 57%
    19:00 +31°C° 0 mm 2 m/s 755 mmHg 65%
    20:00 +30°C° 0 mm 2 m/s 755 mmHg 73%
    21:00 +29°C° 0 mm 2 m/s 755 mmHg 75%
    22:00 +29°C° 0 mm 2 m/s 756 mmHg 76%
    23:00 +28°C° 0 mm 2 m/s 756 mmHg 78%

    27 Junho, Quarta-feira

    Tempo Temperatura Precipitação Vento Pressão Humidade
    00:00 +28°C° 0 mm 2 m/s 755 mmHg 76%
    01:00 +28°C° 0 mm 1 m/s 755 mmHg 73%
    02:00 +27°C° 0 mm 1 m/s 755 mmHg 71%
    03:00 +27°C° 0 mm 1 m/s 755 mmHg 66%
    04:00 +27°C° 0 mm 1 m/s 755 mmHg 62%
    05:00 +27°C° 0 mm 1 m/s 755 mmHg 58%
    06:00 +29°C° 0 mm 1 m/s 755 mmHg 47%
    07:00 +31°C° 0 mm 1 m/s 755 mmHg 37%
    08:00 +34°C° 0 mm 1 m/s 756 mmHg 27%
    09:00 +36°C° 0 mm 2 m/s 755 mmHg 25%
    10:00 +37°C° 0 mm 2 m/s 755 mmHg 23%
    11:00 +39°C° 0 mm 3 m/s 755 mmHg 21%
    12:00 +39°C° 0 mm 3 m/s 755 mmHg 23%
    13:00 +39°C° 0 mm 3 m/s 755 mmHg 24%
    14:00 +40°C° 0 mm 4 m/s 754 mmHg 26%
    15:00 +38°C° 0 mm 4 m/s 754 mmHg 29%
    16:00 +38°C° 0 mm 3 m/s 754 mmHg 32%
    17:00 +37°C° 0 mm 3 m/s 754 mmHg 35%
    18:00 +35°C° 0 mm 3 m/s 754 mmHg 42%
    19:00 +34°C° 0 mm 3 m/s 754 mmHg 49%
    20:00 +31°C° 0 mm 2 m/s 755 mmHg 55%
    21:00 +31°C° 0 mm 2 m/s 755 mmHg 52%
    22:00 +30°C° 0 mm 2 m/s 755 mmHg 49%
    23:00 +30°C° 0 mm 2 m/s 754 mmHg 45%

    28 Junho, Quinta-feira

    Tempo Temperatura Precipitação Vento Pressão Humidade
    00:00 +30°C° 0 mm 2 m/s 754 mmHg 41%
    01:00 +30°C° 0 mm 2 m/s 754 mmHg 36%
    02:00 +30°C° 0 mm 2 m/s 754 mmHg 32%
    03:00 +30°C° 0 mm 2 m/s 754 mmHg 32%
    04:00 +30°C° 0 mm 2 m/s 754 mmHg 32%
    05:00 +30°C° 0 mm 3 m/s 754 mmHg 32%
    06:00 +31°C° 0 mm 3 m/s 755 mmHg 33%
    07:00 +34°C° 0 mm 3 m/s 755 mmHg 35%
    08:00 +35°C° 0 mm 3 m/s 755 mmHg 37%
    09:00 +36°C° 0 mm 3 m/s 755 mmHg 36%
    10:00 +37°C° 0 mm 3 m/s 755 mmHg 35%
    11:00 +38°C° 0 mm 3 m/s 756 mmHg 34%
    12:00 +38°C° 0 mm 3 m/s 755 mmHg 34%
    13:00 +40°C° 0 mm 4 m/s 755 mmHg 34%
    14:00 +40°C° 0 mm 4 m/s 755 mmHg 33%
    15:00 +38°C° 0 mm 4 m/s 755 mmHg 37%
    16:00 +37°C° 0 mm 4 m/s 755 mmHg 40%
    17:00 +36°C° 0 mm 4 m/s 755 mmHg 43%
    18:00 +35°C° 0 mm 4 m/s 755 mmHg 52%
    19:00 +33°C° 0 mm 3 m/s 756 mmHg 62%
    20:00 +31°C° 0 mm 3 m/s 756 mmHg 71%
    21:00 +30°C° 0 mm 3 m/s 756 mmHg 74%
    22:00 +29°C° 0 mm 3 m/s 756 mmHg 76%
    23:00 +29°C° 0 mm 3 m/s 756 mmHg 79%

    29 Junho, Sexta-feira

    Tempo Temperatura Precipitação Vento Pressão Humidade
    00:00 +28°C° 0 mm 3 m/s 756 mmHg 80%
    01:00 +28°C° 0 mm 3 m/s 756 mmHg 81%
    02:00 +27°C° 0 mm 3 m/s 756 mmHg 83%
    03:00 +27°C° 0 mm 2 m/s 756 mmHg 83%
    04:00 +27°C° 0 mm 2 m/s 756 mmHg 83%
    05:00 +26°C° 0 mm 2 m/s 756 mmHg 83%
    06:00 +28°C° 0 mm 3 m/s 756 mmHg 73%
    07:00 +29°C° 0 mm 3 m/s 757 mmHg 63%
    08:00 +31°C° 0 mm 3 m/s 757 mmHg 52%
    09:00 +33°C° 0 mm 3 m/s 757 mmHg 47%
    10:00 +34°C° 0 mm 4 m/s 756 mmHg 42%
    11:00 +35°C° 0 mm 4 m/s 756 mmHg 37%
    12:00 +35°C° 0 mm 4 m/s 756 mmHg 37%
    13:00 +36°C° 0 mm 4 m/s 756 mmHg 37%
    14:00 +36°C° 0 mm 4 m/s 755 mmHg 36%
    15:00 +35°C° 0 mm 4 m/s 755 mmHg 40%
    16:00 +34°C° 0 mm 3 m/s 755 mmHg 43%
    17:00 +34°C° 0 mm 3 m/s 755 mmHg 47%
    18:00 +31°C° 0 mm 3 m/s 755 mmHg 55%
    19:00 +30°C° 0 mm 3 m/s 755 mmHg 62%
    20:00 +29°C° 0 mm 2 m/s 755 mmHg 70%
    21:00 +28°C° 0 mm 2 m/s 755 mmHg 73%
    22:00 +27°C° 0 mm 2 m/s 755 mmHg 76%
    23:00 +27°C° 0 mm 2 m/s 755 mmHg 80%
    Mostrar mais